Find Starlink 35167

NORAD ID: 65736 Int'l Des: 2025-216 Owner: SPXS Country: US Constellation: starlink operational
LEOCIRCULAR

当前视图

正在加载3D地球...

About Starlink 35167

Starlink 35167 (NORAD 65736) is a starlink constellation satellite (v2 mini) launched Sep 25, 2025 by SPXS of US. It operates in LEO, CIRCULAR orbit with a mass of 575.00 kg.

即将过境

Passes for default location (London). Set your location on the main map for personalized predictions.

高度历史

Loading altitude history...

两行轨道根数

1 65736U 25216C 26264.94966180 .00007267 00000-0 22601-3 0 9992
2 65736 53.1580 139.0348 0001282 97.7544 262.3604 15.34396556 56627
Epoch: Sep 21, 2026 • Age: 18 hours

当前状态

高度 480.5 km
远地点 / 近地点 N/A
速度 7.62 km/s
星下点 -49.28°S, 175.28°E
发射日期 Sep 25, 2025
运行时间 0.9 years
类型 internet

技术详情

分类 Payload
质量 575.00 kg
干质量 530.00 kg
长度 0.30 m
跨度 29.00 m
形状 ? Box + pan
制造商 SPXS
平台类型 Starlink V2MO
阶段状态 In Orbit
所有者/国家 SPXS/US

Most Searched